Parkersburg, WV

9:02 AM EDT on May 24, 2017 (GMT -0400)
Wood County Wilson

Weather History for KPKB - April, 2014

Change the Weather History Date:

Thursday, April 10, 2014

  Actual Average Record
Temperature  
Mean Temperature 56 °F 52 °F  
Max Temperature 74 °F 64 °F 86 °F (2013)
Min Temperature 38 °F 41 °F 17 °F (1997)
Degree Days  
Heating Degree Days 9 13  
Month to date heating degree days 119 145  
Since 1 July heating degree days 4467 4606  
Cooling Degree Days 0 0  
Month to date cooling degree days 0 0  
Year to date cooling degree days 0 3  
Growing Degree Days 6 (Base 50)    
Moisture  
Dew Point 30 °F    
Average Humidity 45    
Maximum Humidity 70    
Minimum Humidity 19    
Precipitation  
Precipitation 0.00 in 0.10 in 0.99 in (2015)
Month to date precipitation 1.11 1.09  
Year to date precipitation 6.52 10.47  
Sea Level Pressure  
Sea Level Pressure 30.04 in    
Wind  
Wind Speed 11 mph (SSW)    
Max Wind Speed 23 mph    
Max Gust Speed 34 mph    
Visibility 10 miles    
Events      
T = Trace of Precipitation, MM = Missing Value Source: NWS Daily Summary

Daily Weather History Graph

Daily Weather History Graph

Search for Another Location

Airport or City:

Trip Planner

Search our weather history database for the weather conditions in past years. The results will help you decide how hot, cold, wet, or windy it might be!

Date:

Astronomy

Apr. 10, 2014 Rise Set
Actual Time 6:56 AM EDT 7:58 PM EDT
Civil Twilight 6:28 AM EDT 8:26 PM EDT
Nautical Twilight 5:56 AM EDT 8:58 PM EDT
Astronomical Twilight 5:22 AM EDT 9:32 PM EDT
Moon 3:42 PM EDT (4/10) 4:16 AM EDT (4/10)
Length of Visible Light 13h 57m
Length of Day
13h 02m
Waxing Gibbous, 79% of the Moon is Illuminated
Apr 10
Waxing Gibbous
Apr 15
Full
Apr 22
Last Quarter
Apr 29
New
May 6
First Quarter

Hourly Weather History & Observations

Time (EDT) Temp. Windchill Dew Point Humidity Pressure Visibility Wind Dir Wind Speed Gust Speed Precip Events Conditions
12:53 AM 39.9 °F 36.7 °F 28.9 °F 65% 30.10 in 10.0 mi ESE 4.6 mph - N/A   Clear
1:53 AM 39.0 °F - 30.9 °F 73% 30.10 in 9.0 mi Calm Calm - N/A   Clear
2:53 AM 39.0 °F 34.8 °F 30.0 °F 70% 30.09 in 10.0 mi South 5.8 mph - N/A   Clear
3:53 AM 41.0 °F 37.1 °F 28.9 °F 62% 30.09 in 10.0 mi South 5.8 mph - N/A   Clear
4:53 AM 42.1 °F 38.4 °F 28.0 °F 58% 30.10 in 10.0 mi South 5.8 mph - N/A   Clear
5:53 AM 42.1 °F 39.2 °F 28.0 °F 58% 30.11 in 10.0 mi South 4.6 mph - N/A   Clear
6:53 AM 42.1 °F 37.1 °F 28.0 °F 58% 30.14 in 10.0 mi South 8.1 mph - N/A   Clear
7:53 AM 46.0 °F 41.0 °F 28.9 °F 51% 30.16 in 10.0 mi South 10.4 mph - N/A   Clear
10:53 AM 60.1 °F - 32.0 °F 35% 30.14 in 10.0 mi SSW 12.7 mph 23.0 mph N/A   Clear
11:53 AM 63.0 °F - 28.9 °F 28% 30.10 in 10.0 mi SSW 17.3 mph 29.9 mph N/A   Clear
12:53 PM 66.0 °F - 28.9 °F 25% 30.07 in 10.0 mi SSW 8.1 mph 24.2 mph N/A   Clear
1:53 PM 69.1 °F - 30.9 °F 24% 30.04 in 10.0 mi South 11.5 mph 24.2 mph N/A   Clear
2:53 PM 71.1 °F - 28.9 °F 21% 30.01 in 10.0 mi SSW 17.3 mph 28.8 mph N/A   Clear
3:53 PM 72.0 °F - 28.9 °F 20% 29.96 in 10.0 mi SSW 20.7 mph 29.9 mph N/A   Clear
4:53 PM 73.9 °F - 30.0 °F 20% 29.93 in 10.0 mi SSW 24.2 mph 34.5 mph N/A   Clear
5:53 PM 73.9 °F - 28.9 °F 19% 29.91 in 10.0 mi SSW 16.1 mph 27.6 mph N/A   Clear
7:53 PM 71.1 °F - 30.0 °F 22% 29.91 in 10.0 mi SSW 10.4 mph - N/A   Clear
8:53 PM 70.0 °F - 30.0 °F 23% 29.94 in 10.0 mi SSW 10.4 mph - N/A   Clear
9:53 PM 69.1 °F - 28.9 °F 22% 29.97 in 10.0 mi SSW 9.2 mph - N/A   Clear
10:53 PM 68.0 °F - 30.0 °F 24% 29.98 in 10.0 mi SSW 9.2 mph - N/A   Clear
11:53 PM 68.0 °F - 32.0 °F 26% 29.97 in 10.0 mi SSW 10.4 mph - N/A   Clear